PSRAB SBGO-SBMK

Flight info

Callsign PSRAB
Flight time 1h 11m
Altitude 25000
Route IRULA DCT GEPMO DCT UMSER
Aircraft B350/L-DFGHLRUWY/SB1

Departure

Time 2026-04-26 01:37
Airport Santa Genoveva International Airport (SBGO)

Arrival

Time 2026-04-26 02:48
Airport Mário Ribeiro Airport (SBMK)
Time Latitude Longitude Altitude Speed Heading
2026-04-26 00:57 -16.63559 -49.22049 2464 ft 0 kts 300°
2026-04-26 01:31 -16.63556 -49.22052 2463 ft 1 kts 344°
2026-04-26 01:31 -16.63532 -49.22042 2463 ft 6 kts 25°
2026-04-26 01:31 -16.63492 -49.22082 2463 ft 11 kts 300°
2026-04-26 01:31 -16.63453 -49.22152 2463 ft 10 kts 300°
2026-04-26 01:32 -16.63411 -49.22227 2463 ft 12 kts 300°
2026-04-26 01:32 -16.63363 -49.22310 2463 ft 13 kts 313°
2026-04-26 01:32 -16.63289 -49.22333 2463 ft 13 kts 300°
2026-04-26 01:32 -16.63242 -49.22417 2463 ft 14 kts 301°
2026-04-26 01:33 -16.63189 -49.22506 2463 ft 14 kts 301°
2026-04-26 01:33 -16.63135 -49.22600 2463 ft 15 kts 301°
2026-04-26 01:33 -16.63080 -49.22700 2463 ft 16 kts 299°
2026-04-26 01:33 -16.63024 -49.22805 2463 ft 16 kts 300°
2026-04-26 01:34 -16.62964 -49.22912 2463 ft 17 kts 301°
2026-04-26 01:34 -16.62902 -49.23021 2462 ft 17 kts 300°
2026-04-26 01:34 -16.62819 -49.23095 2462 ft 14 kts 341°
2026-04-26 01:34 -16.62720 -49.23124 2462 ft 14 kts 346°
2026-04-26 01:35 -16.62642 -49.23106 2462 ft 5 kts 61°
2026-04-26 01:35 -16.62651 -49.23076 2462 ft 0 kts 120°
2026-04-26 01:36 -16.62676 -49.23029 2462 ft 37 kts 120°
2026-04-26 01:36 -16.62946 -49.22548 2463 ft 111 kts 120°
2026-04-26 01:37 -16.63913 -49.20763 3063 ft 153 kts 117°
2026-04-26 01:37 -16.64404 -49.19792 3650 ft 154 kts 116°
2026-04-26 01:37 -16.64905 -49.18818 4204 ft 155 kts 114°
2026-04-26 01:37 -16.65088 -49.17730 4714 ft 156 kts 94°
2026-04-26 01:38 -16.65184 -49.16605 5214 ft 158 kts 96°
2026-04-26 01:38 -16.65302 -49.15468 5692 ft 161 kts 97°
2026-04-26 01:38 -16.65432 -49.14310 6163 ft 163 kts 97°
2026-04-26 01:38 -16.65568 -49.13121 6638 ft 165 kts 98°
2026-04-26 01:39 -16.65706 -49.11935 7111 ft 166 kts 98°
2026-04-26 01:39 -16.65844 -49.10754 7574 ft 166 kts 98°
2026-04-26 01:39 -16.65983 -49.09563 8017 ft 167 kts 97°
2026-04-26 01:39 -16.66123 -49.08367 8443 ft 168 kts 97°
2026-04-26 01:40 -16.66264 -49.07161 8869 ft 170 kts 97°
2026-04-26 01:40 -16.66406 -49.05938 9336 ft 171 kts 97°
2026-04-26 01:40 -16.66548 -49.04720 9801 ft 171 kts 97°
2026-04-26 01:40 -16.66692 -49.03492 10233 ft 172 kts 97°
2026-04-26 01:41 -16.66836 -49.02253 10635 ft 174 kts 97°
2026-04-26 01:41 -16.66983 -49.00992 11028 ft 175 kts 97°
2026-04-26 01:41 -16.67128 -48.99742 11390 ft 177 kts 97°
2026-04-26 01:41 -16.67278 -48.98458 11759 ft 179 kts 97°
2026-04-26 01:42 -16.67427 -48.97171 12114 ft 181 kts 97°
2026-04-26 01:42 -16.67580 -48.95855 12466 ft 182 kts 97°
2026-04-26 01:42 -16.67733 -48.94541 12810 ft 183 kts 97°
2026-04-26 01:42 -16.67886 -48.93225 13135 ft 185 kts 97°
2026-04-26 01:43 -16.68041 -48.91895 13445 ft 187 kts 97°
2026-04-26 01:43 -16.68196 -48.90553 13754 ft 188 kts 97°
2026-04-26 01:43 -16.68355 -48.89185 14061 ft 189 kts 97°
2026-04-26 01:43 -16.68512 -48.87826 14359 ft 190 kts 97°
2026-04-26 01:44 -16.68669 -48.86473 14647 ft 191 kts 97°
2026-04-26 01:44 -16.68829 -48.85092 14924 ft 192 kts 97°
2026-04-26 01:44 -16.68989 -48.83706 15202 ft 193 kts 96°
2026-04-26 01:44 -16.69149 -48.82317 15487 ft 194 kts 96°
2026-04-26 01:45 -16.69311 -48.80920 15774 ft 194 kts 96°
2026-04-26 01:45 -16.69471 -48.79528 16049 ft 195 kts 96°
2026-04-26 01:45 -16.69632 -48.78131 16313 ft 195 kts 96°
2026-04-26 01:45 -16.69795 -48.76719 16566 ft 196 kts 96°
2026-04-26 01:46 -16.69958 -48.75299 16811 ft 197 kts 96°
2026-04-26 01:46 -16.70123 -48.73871 17048 ft 199 kts 96°
2026-04-26 01:46 -16.70286 -48.72449 17290 ft 200 kts 96°
2026-04-26 01:46 -16.70453 -48.70999 17548 ft 201 kts 96°
2026-04-26 01:47 -16.70618 -48.69559 17796 ft 202 kts 96°
2026-04-26 01:47 -16.70786 -48.68087 18041 ft 203 kts 96°
2026-04-26 01:47 -16.70953 -48.66632 18278 ft 204 kts 96°
2026-04-26 01:47 -16.71123 -48.65152 18508 ft 205 kts 96°
2026-04-26 01:48 -16.71291 -48.63686 18731 ft 206 kts 96°
2026-04-26 01:48 -16.71463 -48.62188 18954 ft 207 kts 96°
2026-04-26 01:48 -16.71632 -48.60712 19167 ft 208 kts 96°
2026-04-26 01:48 -16.71803 -48.59213 19378 ft 209 kts 96°
2026-04-26 01:49 -16.71977 -48.57692 19586 ft 210 kts 96°
2026-04-26 01:49 -16.72149 -48.56186 19793 ft 211 kts 96°
2026-04-26 01:49 -16.72323 -48.54663 20011 ft 212 kts 97°
2026-04-26 01:49 -16.72497 -48.53138 20220 ft 213 kts 97°
2026-04-26 01:50 -16.72670 -48.51618 20428 ft 213 kts 97°
2026-04-26 01:50 -16.72846 -48.50077 20633 ft 214 kts 97°
2026-04-26 01:50 -16.73020 -48.48544 20830 ft 214 kts 97°
2026-04-26 01:50 -16.73197 -48.46992 21015 ft 215 kts 97°
2026-04-26 01:51 -16.73374 -48.45439 21195 ft 217 kts 97°
2026-04-26 01:51 -16.73552 -48.43869 21363 ft 218 kts 97°
2026-04-26 01:51 -16.73731 -48.42293 21536 ft 219 kts 97°
2026-04-26 01:51 -16.73910 -48.40713 21707 ft 220 kts 97°
2026-04-26 01:52 -16.74090 -48.39132 21869 ft 221 kts 97°
2026-04-26 01:52 -16.74273 -48.37521 22041 ft 222 kts 97°
2026-04-26 01:52 -16.74453 -48.35924 22205 ft 222 kts 97°
2026-04-26 01:52 -16.74635 -48.34320 22374 ft 223 kts 97°
2026-04-26 01:53 -16.74814 -48.32732 22538 ft 223 kts 97°
2026-04-26 01:53 -16.74996 -48.31123 22705 ft 223 kts 97°
2026-04-26 01:53 -16.75179 -48.29510 22872 ft 223 kts 97°
2026-04-26 01:53 -16.75360 -48.27902 23030 ft 223 kts 97°
2026-04-26 01:54 -16.75542 -48.26287 23179 ft 224 kts 97°
2026-04-26 01:54 -16.75721 -48.24692 23320 ft 225 kts 97°
2026-04-26 01:54 -16.75905 -48.23069 23467 ft 225 kts 97°
2026-04-26 01:54 -16.76088 -48.21442 23606 ft 226 kts 97°
2026-04-26 01:55 -16.76272 -48.19805 23746 ft 226 kts 97°
2026-04-26 01:55 -16.76455 -48.18178 23885 ft 227 kts 96°
2026-04-26 01:55 -16.76637 -48.16552 24022 ft 227 kts 96°
2026-04-26 01:55 -16.76821 -48.14914 24153 ft 228 kts 96°
2026-04-26 01:56 -16.77004 -48.13281 24287 ft 228 kts 96°
2026-04-26 01:56 -16.77189 -48.11630 24413 ft 228 kts 96°
2026-04-26 01:56 -16.77374 -48.09978 24539 ft 229 kts 96°
2026-04-26 01:56 -16.77554 -48.08337 24666 ft 229 kts 95°
2026-04-26 01:57 -16.77689 -48.06680 24785 ft 229 kts 94°
2026-04-26 01:57 -16.77822 -48.05030 24906 ft 230 kts 94°
2026-04-26 01:57 -16.77955 -48.03376 25026 ft 230 kts 94°
2026-04-26 01:57 -16.78089 -48.01709 25108 ft 232 kts 94°
2026-04-26 01:58 -16.78226 -47.99999 25119 ft 238 kts 94°
2026-04-26 01:58 -16.78366 -47.98262 25123 ft 243 kts 94°
2026-04-26 01:58 -16.78507 -47.96503 25125 ft 249 kts 94°
2026-04-26 01:58 -16.78653 -47.94679 25125 ft 254 kts 94°
2026-04-26 01:59 -16.78802 -47.92820 25122 ft 259 kts 94°
2026-04-26 01:59 -16.78954 -47.90919 25117 ft 265 kts 94°
2026-04-26 01:59 -16.79107 -47.89000 25117 ft 269 kts 94°
2026-04-26 01:59 -16.79264 -47.87046 25120 ft 274 kts 94°
2026-04-26 02:00 -16.79423 -47.85051 25121 ft 278 kts 94°
2026-04-26 02:00 -16.79583 -47.83034 25122 ft 282 kts 94°
2026-04-26 02:00 -16.79746 -47.80980 25123 ft 285 kts 94°
2026-04-26 02:00 -16.79911 -47.78911 25125 ft 289 kts 94°
2026-04-26 02:01 -16.80077 -47.76808 25128 ft 292 kts 95°
2026-04-26 02:01 -16.80245 -47.74690 25131 ft 295 kts 95°
2026-04-26 02:01 -16.80414 -47.72548 25131 ft 298 kts 95°
2026-04-26 02:01 -16.80585 -47.70388 25131 ft 301 kts 95°
2026-04-26 02:02 -16.80758 -47.68201 25131 ft 304 kts 95°
2026-04-26 02:02 -16.80930 -47.66018 25131 ft 306 kts 94°
2026-04-26 02:02 -16.81104 -47.63796 25132 ft 308 kts 94°
2026-04-26 02:02 -16.81280 -47.61554 25131 ft 310 kts 94°
2026-04-26 02:03 -16.81455 -47.59323 25131 ft 312 kts 94°
2026-04-26 02:03 -16.81633 -47.57053 25128 ft 313 kts 94°
2026-04-26 02:03 -16.81811 -47.54781 25126 ft 314 kts 95°
2026-04-26 02:03 -16.81988 -47.52511 25127 ft 315 kts 95°
2026-04-26 02:04 -16.82165 -47.50247 25126 ft 315 kts 95°
2026-04-26 02:04 -16.82342 -47.47971 25127 ft 315 kts 95°
2026-04-26 02:04 -16.82519 -47.45691 25127 ft 316 kts 95°
2026-04-26 02:04 -16.82697 -47.43405 25125 ft 316 kts 95°
2026-04-26 02:05 -16.82874 -47.41114 25125 ft 317 kts 95°
2026-04-26 02:05 -16.83052 -47.38822 25123 ft 317 kts 95°
2026-04-26 02:05 -16.83227 -47.36552 25123 ft 317 kts 95°
2026-04-26 02:05 -16.83404 -47.34261 25123 ft 318 kts 94°
2026-04-26 02:06 -16.83582 -47.31955 25123 ft 318 kts 94°
2026-04-26 02:06 -16.83760 -47.29647 25122 ft 318 kts 94°
2026-04-26 02:06 -16.83938 -47.27328 25122 ft 319 kts 94°
2026-04-26 02:06 -16.84114 -47.25038 25122 ft 319 kts 94°
2026-04-26 02:07 -16.84291 -47.22726 25122 ft 319 kts 94°
2026-04-26 02:07 -16.84467 -47.20426 25122 ft 319 kts 94°
2026-04-26 02:07 -16.84644 -47.18110 25122 ft 320 kts 94°
2026-04-26 02:07 -16.84819 -47.15807 25121 ft 320 kts 94°
2026-04-26 02:08 -16.84996 -47.13492 25118 ft 320 kts 94°
2026-04-26 02:08 -16.84983 -47.11192 25123 ft 319 kts 87°
2026-04-26 02:08 -16.84863 -47.08865 25123 ft 319 kts 87°
2026-04-26 02:08 -16.84745 -47.06539 25122 ft 320 kts 87°
2026-04-26 02:09 -16.84629 -47.04236 25120 ft 320 kts 87°
2026-04-26 02:09 -16.84513 -47.01924 25119 ft 320 kts 87°
2026-04-26 02:09 -16.84397 -46.99618 25118 ft 320 kts 87°
2026-04-26 02:09 -16.84279 -46.97274 25119 ft 320 kts 87°
2026-04-26 02:10 -16.84163 -46.94971 25118 ft 321 kts 87°
2026-04-26 02:10 -16.84044 -46.92637 25117 ft 321 kts 87°
2026-04-26 02:10 -16.83928 -46.90336 25118 ft 321 kts 87°
2026-04-26 02:10 -16.83809 -46.87997 25115 ft 321 kts 87°
2026-04-26 02:11 -16.83691 -46.85690 25111 ft 321 kts 87°
2026-04-26 02:11 -16.83572 -46.83364 25106 ft 322 kts 87°
2026-04-26 02:11 -16.83452 -46.81014 25103 ft 322 kts 87°
2026-04-26 02:11 -16.83333 -46.78695 25099 ft 322 kts 87°
2026-04-26 02:12 -16.83213 -46.76358 25097 ft 322 kts 87°
2026-04-26 02:12 -16.83093 -46.74033 25089 ft 322 kts 87°
2026-04-26 02:12 -16.82974 -46.71720 25087 ft 322 kts 87°
2026-04-26 02:12 -16.82853 -46.69378 25085 ft 322 kts 87°
2026-04-26 02:13 -16.82732 -46.67059 25085 ft 322 kts 87°
2026-04-26 02:13 -16.82610 -46.64714 25084 ft 322 kts 87°
2026-04-26 02:13 -16.82490 -46.62397 25080 ft 322 kts 87°
2026-04-26 02:13 -16.82368 -46.60055 25076 ft 322 kts 87°
2026-04-26 02:14 -16.82247 -46.57744 25073 ft 322 kts 87°
2026-04-26 02:14 -16.82124 -46.55400 25071 ft 322 kts 88°
2026-04-26 02:14 -16.82001 -46.53060 25069 ft 322 kts 87°
2026-04-26 02:14 -16.81879 -46.50740 25072 ft 322 kts 87°
2026-04-26 02:15 -16.81756 -46.48407 25075 ft 321 kts 87°
2026-04-26 02:15 -16.81633 -46.46082 25075 ft 321 kts 87°
2026-04-26 02:15 -16.81510 -46.43759 25074 ft 321 kts 87°
2026-04-26 02:15 -16.81387 -46.41443 25075 ft 321 kts 87°
2026-04-26 02:16 -16.81262 -46.39099 25074 ft 321 kts 87°
2026-04-26 02:16 -16.81140 -46.36807 25074 ft 321 kts 87°
2026-04-26 02:16 -16.81015 -46.34464 25072 ft 321 kts 87°
2026-04-26 02:16 -16.80891 -46.32152 25073 ft 321 kts 87°
2026-04-26 02:17 -16.80765 -46.29814 25069 ft 321 kts 87°
2026-04-26 02:17 -16.80641 -46.27493 25071 ft 321 kts 87°
2026-04-26 02:17 -16.80515 -46.25172 25070 ft 322 kts 87°
2026-04-26 02:17 -16.80389 -46.22830 25068 ft 322 kts 87°
2026-04-26 02:18 -16.80263 -46.20501 25069 ft 322 kts 87°
2026-04-26 02:18 -16.80138 -46.18192 25069 ft 322 kts 87°
2026-04-26 02:18 -16.80011 -46.15871 25069 ft 322 kts 88°
2026-04-26 02:18 -16.79885 -46.13540 25069 ft 321 kts 87°
2026-04-26 02:19 -16.79758 -46.11215 25067 ft 321 kts 87°
2026-04-26 02:19 -16.79631 -46.08885 25066 ft 322 kts 87°
2026-04-26 02:19 -16.79503 -46.06562 25065 ft 322 kts 87°
2026-04-26 02:19 -16.79374 -46.04215 25061 ft 322 kts 87°
2026-04-26 02:20 -16.79247 -46.01900 25062 ft 322 kts 87°
2026-04-26 02:20 -16.79118 -45.99554 25062 ft 322 kts 87°
2026-04-26 02:20 -16.78989 -45.97230 25063 ft 322 kts 87°
2026-04-26 02:20 -16.78861 -45.94919 25065 ft 322 kts 87°
2026-04-26 02:21 -16.78731 -45.92572 25066 ft 322 kts 87°
2026-04-26 02:21 -16.78603 -45.90263 25067 ft 322 kts 87°
2026-04-26 02:21 -16.78471 -45.87911 25069 ft 322 kts 88°
2026-04-26 02:21 -16.78342 -45.85586 25067 ft 322 kts 88°
2026-04-26 02:22 -16.78213 -45.83279 25069 ft 322 kts 88°
2026-04-26 02:22 -16.78081 -45.80928 25071 ft 322 kts 87°
2026-04-26 02:22 -16.77952 -45.78624 25072 ft 322 kts 87°
2026-04-26 02:22 -16.77821 -45.76299 25071 ft 322 kts 87°
2026-04-26 02:23 -16.77688 -45.73950 25071 ft 322 kts 87°
2026-04-26 02:23 -16.77557 -45.71620 25069 ft 322 kts 87°
2026-04-26 02:23 -16.77425 -45.69299 25069 ft 322 kts 87°
2026-04-26 02:23 -16.77293 -45.66962 25067 ft 322 kts 87°
2026-04-26 02:24 -16.77162 -45.64658 25064 ft 322 kts 87°
2026-04-26 02:24 -16.77028 -45.62309 25060 ft 322 kts 87°
2026-04-26 02:24 -16.76896 -45.59997 25058 ft 322 kts 87°
2026-04-26 02:24 -16.76762 -45.57646 25058 ft 323 kts 88°
2026-04-26 02:25 -16.76629 -45.55332 25054 ft 323 kts 87°
2026-04-26 02:25 -16.76495 -45.52999 25054 ft 323 kts 88°
2026-04-26 02:25 -16.76360 -45.50646 25052 ft 322 kts 88°
2026-04-26 02:25 -16.76226 -45.48317 25052 ft 322 kts 87°
2026-04-26 02:26 -16.76092 -45.45997 25053 ft 322 kts 87°
2026-04-26 02:26 -16.75957 -45.43670 25053 ft 322 kts 88°
2026-04-26 02:26 -16.75822 -45.41331 25052 ft 323 kts 87°
2026-04-26 02:26 -16.75687 -45.39013 25049 ft 323 kts 87°
2026-04-26 02:27 -16.75551 -45.36679 25049 ft 323 kts 88°
2026-04-26 02:27 -16.75413 -45.34310 25048 ft 323 kts 87°
2026-04-26 02:27 -16.75276 -45.32004 25049 ft 323 kts 87°
2026-04-26 02:27 -16.75136 -45.29655 25048 ft 323 kts 87°
2026-04-26 02:28 -16.74997 -45.27329 25048 ft 323 kts 87°
2026-04-26 02:28 -16.74858 -45.25000 25047 ft 323 kts 87°
2026-04-26 02:28 -16.74718 -45.22675 25046 ft 323 kts 87°
2026-04-26 02:28 -16.74577 -45.20327 25044 ft 323 kts 87°
2026-04-26 02:29 -16.74438 -45.18008 25044 ft 323 kts 87°
2026-04-26 02:29 -16.74296 -45.15653 25044 ft 323 kts 87°
2026-04-26 02:29 -16.74155 -45.13331 25042 ft 323 kts 87°
2026-04-26 02:29 -16.74014 -45.10996 24877 ft 326 kts 87°
2026-04-26 02:30 -16.73872 -45.08646 24607 ft 325 kts 87°
2026-04-26 02:30 -16.73729 -45.06291 24260 ft 324 kts 87°
2026-04-26 02:30 -16.73587 -45.03949 23887 ft 323 kts 87°
2026-04-26 02:30 -16.73445 -45.01617 23510 ft 322 kts 87°
2026-04-26 02:31 -16.73303 -44.99302 23142 ft 320 kts 87°
2026-04-26 02:31 -16.73162 -44.97004 22775 ft 318 kts 88°
2026-04-26 02:31 -16.73021 -44.94705 22408 ft 317 kts 88°
2026-04-26 02:31 -16.72881 -44.92415 22048 ft 316 kts 88°
2026-04-26 02:32 -16.72741 -44.90149 21701 ft 315 kts 87°
2026-04-26 02:32 -16.72600 -44.87859 21350 ft 314 kts 87°
2026-04-26 02:32 -16.72461 -44.85613 21005 ft 313 kts 87°
2026-04-26 02:32 -16.72322 -44.83369 20657 ft 311 kts 87°
2026-04-26 02:33 -16.72182 -44.81104 20302 ft 309 kts 87°
2026-04-26 02:33 -16.72044 -44.78886 19949 ft 305 kts 87°
2026-04-26 02:33 -16.71909 -44.76714 19601 ft 302 kts 87°
2026-04-26 02:33 -16.71773 -44.74534 19248 ft 300 kts 87°
2026-04-26 02:34 -16.71638 -44.72372 18895 ft 297 kts 87°
2026-04-26 02:34 -16.71505 -44.70251 18546 ft 295 kts 87°
2026-04-26 02:34 -16.71372 -44.68114 18194 ft 293 kts 86°
2026-04-26 02:34 -16.71240 -44.66015 17847 ft 291 kts 86°
2026-04-26 02:35 -16.71108 -44.63913 17497 ft 290 kts 86°
2026-04-26 02:35 -16.70977 -44.61823 17151 ft 288 kts 86°
2026-04-26 02:35 -16.70845 -44.59743 16809 ft 287 kts 86°
2026-04-26 02:35 -16.70716 -44.57700 16470 ft 286 kts 86°
2026-04-26 02:36 -16.70586 -44.55641 16128 ft 285 kts 87°
2026-04-26 02:36 -16.70456 -44.53585 15783 ft 283 kts 87°
2026-04-26 02:36 -16.70326 -44.51538 15437 ft 281 kts 87°
2026-04-26 02:36 -16.70197 -44.49508 15091 ft 280 kts 87°
2026-04-26 02:37 -16.70069 -44.47500 14747 ft 278 kts 87°
2026-04-26 02:37 -16.69941 -44.45493 14399 ft 277 kts 87°
2026-04-26 02:37 -16.69813 -44.43485 14048 ft 275 kts 88°
2026-04-26 02:37 -16.69686 -44.41496 13700 ft 274 kts 88°
2026-04-26 02:38 -16.69560 -44.39525 13355 ft 273 kts 88°
2026-04-26 02:38 -16.69434 -44.37559 13012 ft 273 kts 88°
2026-04-26 02:38 -16.69308 -44.35600 12673 ft 272 kts 87°
2026-04-26 02:38 -16.69181 -44.33628 12328 ft 271 kts 87°
2026-04-26 02:39 -16.69057 -44.31685 11982 ft 268 kts 87°
2026-04-26 02:39 -16.68933 -44.29762 11634 ft 265 kts 86°
2026-04-26 02:39 -16.68811 -44.27859 11285 ft 263 kts 86°
2026-04-26 02:39 -16.68687 -44.25950 10932 ft 261 kts 86°
2026-04-26 02:40 -16.68566 -44.24077 10581 ft 259 kts 85°
2026-04-26 02:40 -16.68446 -44.22229 10229 ft 256 kts 85°
2026-04-26 02:40 -16.68328 -44.20403 9875 ft 252 kts 85°
2026-04-26 02:40 -16.68209 -44.18578 9515 ft 249 kts 84°
2026-04-26 02:41 -16.68092 -44.16797 9157 ft 246 kts 85°
2026-04-26 02:41 -16.67977 -44.15031 8801 ft 243 kts 85°
2026-04-26 02:41 -16.67862 -44.13267 8441 ft 240 kts 85°
2026-04-26 02:41 -16.67750 -44.11555 8073 ft 237 kts 85°
2026-04-26 02:42 -16.67638 -44.09842 7690 ft 234 kts 85°
2026-04-26 02:42 -16.67627 -44.08159 7306 ft 232 kts 96°
2026-04-26 02:42 -16.67822 -44.06516 6929 ft 228 kts 97°
2026-04-26 02:42 -16.68014 -44.04882 6541 ft 223 kts 97°
2026-04-26 02:43 -16.68378 -44.01758 5775 ft 214 kts 97°
2026-04-26 02:43 -16.68555 -44.00232 5384 ft 208 kts 97°
2026-04-26 02:43 -16.68730 -43.98748 4992 ft 204 kts 97°
2026-04-26 02:44 -16.68901 -43.97311 4619 ft 199 kts 97°
2026-04-26 02:44 -16.69067 -43.95908 4298 ft 192 kts 97°
2026-04-26 02:44 -16.69222 -43.94598 4004 ft 172 kts 96°
2026-04-26 02:44 -16.69361 -43.93397 3732 ft 164 kts 96°
2026-04-26 02:45 -16.69494 -43.92265 3566 ft 152 kts 96°
2026-04-26 02:45 -16.69618 -43.91197 3374 ft 145 kts 96°
2026-04-26 02:45 -16.69737 -43.90169 3213 ft 138 kts 95°
2026-04-26 02:45 -16.69849 -43.89202 3074 ft 132 kts 96°
2026-04-26 02:46 -16.69957 -43.88270 2956 ft 125 kts 95°
2026-04-26 02:46 -16.70056 -43.87408 2873 ft 119 kts 96°
2026-04-26 02:46 -16.70154 -43.86547 2764 ft 118 kts 95°
2026-04-26 02:46 -16.70235 -43.85694 2637 ft 118 kts 95°
2026-04-26 02:47 -16.70322 -43.84843 2515 ft 119 kts 95°
2026-04-26 02:47 -16.70425 -43.83990 2389 ft 119 kts 96°
2026-04-26 02:47 -16.70537 -43.83123 2252 ft 120 kts 98°
2026-04-26 02:47 -16.70650 -43.82275 2180 ft 105 kts 97°
2026-04-26 02:48 -16.70715 -43.81735 2186 ft 52 kts 96°
2026-04-26 02:48 -16.70739 -43.81546 2187 ft 16 kts 117°
2026-04-26 02:48 -16.70736 -43.81511 2187 ft 5 kts 295°
2026-04-26 02:48 -16.70732 -43.81562 2187 ft 7 kts 276°
2026-04-26 02:49 -16.70725 -43.81625 2187 ft 9 kts 277°
2026-04-26 02:49 -16.70717 -43.81702 2186 ft 11 kts 278°
2026-04-26 02:49 -16.70705 -43.81797 2185 ft 15 kts 277°
2026-04-26 02:49 -16.70690 -43.81930 2184 ft 20 kts 277°
2026-04-26 02:50 -16.70668 -43.82079 2182 ft 20 kts 301°
2026-04-26 02:50 -16.70584 -43.82104 2182 ft 11 kts 321°
2026-04-26 02:50 -16.70570 -43.82134 2181 ft 2 kts 283°
2026-04-26 02:50 -16.70557 -43.82158 2181 ft 5 kts 344°
2026-04-26 02:51 -16.70516 -43.82180 2180 ft 8 kts 309°
2026-04-26 02:51 -16.70496 -43.82222 2180 ft 1 kts 298°
2026-04-26 02:51 -16.70477 -43.82236 2179 ft 5 kts 345°
2026-04-26 02:51 -16.70436 -43.82230 2179 ft 3 kts 11°
2026-04-26 02:52 -16.70420 -43.82228 2179 ft 0 kts 27°
2026-04-26 02:52 -16.70418 -43.82223 2179 ft 0 kts 97°